Probability
0 71 100 100 100 100 100 100 100 100 100 100 100 100 100 100 100 100 100 100 100 100 100 100 100 100 100 100 100 100 100 100 100 100 100 97 100 100 100 100 100 94 100
32 97 100 100 100 100 100 100 100 100 100 100 100 100 100 100 100 100 100 100 100 100 100 100 100 100 100 100 97 97 77 81 87 97 97 97 100 100 100 100 100 100 97
90 100 100 100 100 100 100 100 100 100 100 100 100 100 100 100 100 100 100 100 100 100 100 100 100 100 100 94 94 84 74 68 65 74 94 87 100 100 100 100 100 100 100
97 100 100 100 100 100 100 100 100 100 100 100 100 100 100 100 100 100 100 100 100 100 100 100 94 90 94 94 81 65 42 35 45 45 45 71 100 100 100 100 100 100 100
100 100 100 100 100 100 100 100 100 100 100 100 100 100 100 100 100 100 100 100 100 100 100 100 97 94 90 84 65 39 19 29 29 26 39 61 94 100 100 100 100 100 100
100 100 100 100 100 100 100 100 100 100 100 100 100 100 100 100 100 100 100 100 100 100 100 100 97 97 90 74 61 35 29 35 13 23 45 71 94 100 100 100 100 100 100
100 100 100 100 100 100 100 100 100 100 100 100 100 100 100 100 100 100 100 100 100 100 100 97 97 97 87 68 48 19 23 23 10 39 58 77 90 97 94 97 100 100 100
100 100 100 100 100 100 100 100 100 100 100 100 100 100 100 100 100 100 100 100 100 100 100 100 97 87 77 68 29 13 16 16 19 39 68 71 81 94 94 97 100 100 100
100 100 100 100 100 100 100 100 100 100 100 100 100 100 100 100 100 100 100 100 100 100 100 97 90 81 68 45 26 10 3 16 3 32 48 55 77 90 97 94 100 100 100
100 100 100 100 100 100 100 100 100 100 100 100 100 100 100 100 100 100 100 100 100 100 100 87 81 77 61 39 26 6 6 13 0 10 16 35 74 77 71 68 74 81 87
100 100 100 100 100 100 100 100 100 100 100 100 100 100 100 100 100 100 100 100 100 100 94 87 71 71 55 26 10 6 10 0 0 0 0 23 65 68 61 42 39 45 58
100 100 97 94 100 97 100 100 100 100 100 94 94 97 97 65 55 100 100 100 100 100 90 77 74 65 32 3 0 0 0 0 0 0 0 10 58 65 52 35 26 19 19
77 100 97 94 94 94 94 94 94 90 94 94 90 90 42 13 10 61 23 81 100 100 68 52 19 6 3 3 0 0 0 0 0 0 0 10 48 65 48 55 42 23 23
71 87 90 94 94 94 74 94 90 81 71 52 32 39 6 6 3 3 3 6 23 23 16 6 3 0 0 0 0 0 0 0 0 0 0 10 55 77 61 81 74 68 90
74 71 87 90 84 81 68 84 84 61 52 16 13 6 6 3 3 3 0 3 3 3 0 0 0 0 0 0 0 0 0 0 0 0 0 6 45 58 52 42 58 71 84
77 71 74 84 81 71 65 74 68 42 13 10 6 6 3 3 3 0 0 0 0 0 0 0 0 0 0 0 0 0 0 0 0 0 0 0 3 3 13 13 13 16 23
74 61 55 81 81 65 68 61 39 29 13 6 6 3 6 3 3 0 0 0 0 0 0 0 0 0 0 0 0 0 0 0 0 0 0 0 0 0 0 0 0 0 0
81 61 55 77 81 68 65 55 26 16 10 10 6 6 13 6 0 0 0 0 0 0 0 0 0 0 0 0 0 0 0 0 0 0 0 0 0 0 0 0 0 0 0
94 68 77 81 74 74 68 39 13 10 6 6 6 0 0 3 0 0 0 0 0 0 0 0 0 0 0 0 0 0 0 0 0 0 0 0 0 0 0 0 0 0 0
90 87 84 77 68 71 55 26 10 6 3 0 0 0 0 0 0 0 0 0 0 0 0 0 0 0 0 0 0 0 0 0 0 0 0 0 0 0 0 0 0 0 0
71 84 84 77 68 61 39 16 13 3 0 0 0 0 0 0 0 0 0 0 0 0 0 0 0 0 0 0 0 0 0 0 0 0 0 0 0 0 0 0 0 0 0
71 74 77 74 65 48 26 13 0 0 0 0 0 0 0 0 0 0 0 0 0 0 0 0 0 0 0 0 0 0 0 0 0 0 0 0 0 0 0 0 0 0 0
65 71 74 65 45 26 10 0 0 0 0 0 0 0 0 0 0 0 0 0 0 0 0 0 0 0 0 0 0 0 0 0 0 0 0 0 0 0 0 0 0 0 0
48 58 55 45 16 6 0 0 0 0 0 0 0 0 0 0 0 0 0 0 0 0 0 0 0 0 0 0 0 0 0 0 0 0 0 0 0 0 0 0 0 0 0
26 35 32 10 3 0 0 0 0 0 0 0 0 0 0 0 0 0 0 0 0 0 0 0 0 0 0 0 0 0 0 0 0 0 0 0 0 0 0 0 0 0 0
19 19 13 3 0 0 0 0 0 0 0 0 0 0 0 0 0 0 0 0 0 0 0 0 0 0 0 0 0 0 0 0 0 0 0 0 0 0 0 0 0 0 0
Height
5888 5888 5888 5888 5889 5889 5890 5890 5890 5891 5891 5892 5893 5893 5894 5894 5895 5895 5896 5897 5897 5898 5899 5899 5899 5900 5900 5901 5901 5901 5901 5901 5901 5901 5902 5902 5902 5903 5903 5903 5903 5903 5903
5887 5886 5886 5886 5887 5887 5888 5888 5888 5888 5888 5889 5890 5891 5892 5892 5893 5893 5894 5894 5895 5895 5896 5897 5898 5898 5899 5899 5899 5899 5899 5899 5899 5899 5899 5899 5899 5900 5900 5901 5901 5901 5901
5886 5885 5885 5885 5885 5885 5885 5885 5886 5886 5886 5887 5888 5888 5889 5890 5891 5891 5891 5892 5892 5893 5894 5895 5895 5896 5897 5897 5897 5897 5897 5897 5897 5897 5896 5896 5896 5897 5897 5897 5897 5898 5897
5885 5884 5884 5884 5883 5883 5883 5883 5884 5884 5885 5885 5886 5886 5887 5888 5888 5889 5889 5890 5890 5891 5892 5892 5893 5893 5894 5894 5895 5894 5894 5893 5893 5893 5893 5893 5893 5893 5893 5894 5894 5894 5894
5885 5884 5884 5883 5883 5882 5882 5882 5882 5882 5883 5883 5884 5884 5885 5886 5886 5887 5888 5888 5889 5889 5889 5889 5890 5890 5891 5891 5891 5891 5891 5890 5890 5890 5889 5889 5889 5889 5889 5889 5889 5889 5889
5885 5885 5884 5884 5882 5882 5881 5881 5881 5881 5881 5881 5882 5882 5883 5884 5884 5885 5886 5886 5886 5887 5887 5886 5886 5887 5887 5888 5888 5888 5887 5887 5886 5885 5885 5885 5885 5885 5885 5885 5885 5885 5885
5886 5885 5885 5883 5882 5881 5881 5880 5880 5880 5880 5880 5880 5881 5881 5882 5883 5883 5884 5884 5884 5884 5884 5883 5883 5884 5884 5885 5885 5885 5884 5883 5882 5882 5881 5881 5881 5881 5881 5881 5881 5881 5881
5886 5885 5884 5883 5882 5881 5880 5880 5879 5879 5879 5879 5879 5880 5880 5880 5881 5881 5881 5882 5881 5881 5881 5881 5880 5880 5881 5882 5882 5881 5880 5879 5878 5878 5877 5877 5877 5876 5876 5876 5876 5876 5877
5886 5885 5883 5882 5881 5881 5880 5879 5879 5878 5878 5878 5878 5878 5879 5879 5879 5879 5880 5880 5879 5879 5878 5878 5877 5877 5877 5877 5877 5876 5876 5875 5874 5874 5873 5873 5873 5872 5872 5872 5872 5872 5872
5887 5885 5884 5882 5881 5880 5880 5879 5878 5878 5877 5877 5877 5877 5877 5877 5877 5877 5877 5877 5877 5876 5875 5875 5874 5874 5874 5873 5873 5872 5871 5871 5870 5870 5869 5869 5869 5868 5868 5868 5868 5867 5867
5887 5885 5884 5883 5882 5881 5879 5879 5878 5877 5876 5876 5876 5876 5876 5875 5875 5875 5875 5874 5874 5873 5872 5872 5871 5871 5870 5869 5869 5868 5867 5867 5866 5866 5865 5865 5865 5864 5864 5863 5863 5863 5862
5886 5885 5884 5883 5882 5880 5879 5878 5877 5876 5875 5875 5874 5874 5874 5873 5873 5872 5872 5871 5871 5870 5869 5869 5868 5868 5867 5866 5865 5865 5864 5863 5863 5862 5862 5861 5861 5860 5860 5859 5858 5857 5857
5885 5884 5883 5882 5881 5880 5879 5878 5876 5875 5875 5874 5873 5872 5872 5871 5871 5870 5869 5869 5868 5867 5866 5866 5865 5865 5864 5863 5863 5862 5861 5860 5860 5859 5859 5858 5857 5857 5856 5855 5854 5852 5851
5884 5884 5883 5882 5881 5879 5878 5877 5876 5875 5873 5872 5871 5870 5869 5869 5868 5867 5867 5866 5865 5865 5864 5863 5862 5862 5861 5860 5859 5858 5857 5857 5856 5855 5854 5854 5853 5852 5851 5850 5849 5848 5846
5883 5882 5881 5881 5880 5878 5877 5876 5874 5873 5872 5870 5869 5868 5867 5866 5865 5864 5864 5863 5862 5861 5860 5859 5858 5858 5856 5855 5854 5853 5852 5851 5850 5849 5849 5848 5847 5846 5845 5844 5842 5841 5840
5881 5881 5880 5879 5878 5876 5875 5873 5872 5871 5869 5868 5866 5865 5863 5862 5862 5861 5860 5859 5859 5858 5857 5855 5854 5853 5852 5851 5849 5848 5846 5845 5844 5843 5842 5841 5839 5838 5837 5835 5834 5832 5831
5879 5878 5877 5876 5875 5873 5872 5870 5868 5867 5865 5863 5862 5861 5859 5858 5857 5857 5856 5855 5854 5853 5852 5850 5849 5848 5847 5845 5844 5842 5841 5839 5837 5835 5834 5832 5830 5828 5826 5825 5823 5821 5820
5876 5875 5874 5873 5871 5870 5868 5866 5864 5862 5860 5858 5856 5855 5854 5853 5852 5851 5850 5848 5847 5846 5845 5844 5843 5842 5840 5838 5837 5835 5833 5831 5828 5826 5824 5822 5820 5817 5815 5813 5811 5810 5808
5873 5871 5870 5868 5867 5865 5863 5862 5859 5857 5854 5852 5850 5849 5847 5846 5845 5844 5842 5841 5839 5838 5837 5836 5835 5834 5832 5831 5828 5826 5823 5821 5819 5816 5814 5811 5808 5806 5803 5801 5799 5797 5796
5869 5867 5866 5864 5862 5860 5858 5856 5853 5851 5848 5845 5843 5841 5840 5838 5837 5835 5834 5832 5831 5830 5830 5829 5827 5826 5824 5822 5820 5817 5814 5811 5808 5806 5803 5800 5797 5794 5792 5789 5787 5784 5782
5864 5863 5861 5859 5857 5854 5851 5849 5846 5843 5840 5837 5834 5833 5831 5830 5829 5827 5826 5825 5823 5822 5822 5821 5819 5818 5816 5814 5811 5808 5804 5801 5799 5796 5792 5789 5786 5783 5780 5777 5774 5771 5769
5859 5858 5856 5854 5851 5848 5845 5842 5839 5835 5832 5830 5827 5826 5824 5822 5820 5819 5818 5817 5816 5815 5813 5812 5810 5809 5807 5804 5802 5798 5795 5792 5789 5785 5782 5778 5774 5771 5767 5764 5760 5757 5754
5853 5852 5850 5848 5845 5842 5839 5836 5832 5828 5824 5822 5821 5819 5817 5815 5813 5811 5810 5809 5808 5806 5805 5803 5801 5799 5797 5795 5792 5789 5785 5782 5778 5775 5771 5766 5762 5758 5753 5750 5746 5742 5738
5847 5846 5844 5841 5838 5835 5831 5827 5823 5820 5816 5815 5814 5812 5810 5808 5806 5804 5803 5802 5800 5798 5796 5794 5792 5790 5787 5784 5781 5778 5774 5770 5767 5763 5759 5754 5748 5743 5738 5734 5729 5725 5721
5839 5839 5837 5834 5830 5827 5823 5818 5814 5812 5809 5807 5806 5804 5802 5800 5799 5797 5796 5795 5792 5790 5787 5785 5782 5780 5777 5773 5770 5766 5762 5758 5753 5749 5746 5741 5734 5727 5721 5716 5711 5707 5702
5832 5830 5828 5825 5822 5818 5814 5810 5806 5803 5801 5800 5798 5796 5794 5793 5792 5790 5788 5786 5784 5781 5778 5775 5772 5769 5765 5762 5757 5753 5749 5744 5738 5733 5729 5725 5720 5714 5706 5698 5692 5687 5682
Wind_Speed
10 11 11 11 11 11 10 11 11 11 12 13 13 14 14 14 14 13 13 13 13 13 13 13 13 14 13 13 13 12 13 14 14 15 15 16 15 15 15 15 15 16 16
9 10 10 11 11 11 10 10 11 11 12 13 14 14 14 13 13 13 13 13 13 13 13 13 14 14 15 15 15 15 15 16 16 16 17 17 16 16 16 16 16 17 17
6 8 9 9 10 9 9 9 9 10 11 11 12 13 13 12 12 12 12 13 13 14 14 14 14 15 16 17 17 18 18 18 18 17 17 17 17 17 17 17 17 18 18
6 6 7 8 8 8 8 8 8 8 9 10 10 11 12 12 11 11 12 12 13 14 14 15 16 17 18 18 19 19 20 20 20 20 19 19 19 19 18 18 18 19 19
6 6 6 6 7 7 6 6 6 7 8 9 10 11 11 11 11 10 11 12 13 13 15 16 17 18 18 18 18 18 19 20 20 20 20 20 20 19 19 19 19 20 20
7 7 7 7 7 7 6 6 6 6 7 8 9 9 10 10 10 10 11 12 13 14 15 16 17 17 17 16 15 15 16 18 18 19 19 19 19 19 19 19 20 21 21
8 9 9 9 9 8 7 6 6 6 6 7 7 8 9 9 9 10 11 12 13 14 15 16 17 17 17 16 16 17 17 18 19 19 19 19 20 20 20 21 21 22 22
11 11 12 12 11 10 8 7 6 6 6 6 7 7 8 8 9 11 12 13 13 14 15 17 18 19 19 19 18 18 19 19 19 20 20 20 21 22 22 22 23 23 23
15 14 14 14 13 12 10 8 7 6 5 5 6 6 7 8 9 10 11 12 13 15 17 18 20 21 21 20 19 19 19 19 19 20 20 21 21 22 23 23 23 24 24
17 17 17 16 15 13 11 9 7 6 5 5 5 6 6 7 8 9 10 12 14 16 17 18 20 20 21 20 20 20 19 19 19 19 19 19 19 20 21 21 22 23 23
16 18 18 18 17 15 12 10 8 7 6 5 4 5 5 6 7 9 10 12 13 14 15 16 18 18 18 19 19 19 19 19 18 19 19 19 19 20 21 22 22 23 23
15 17 19 19 19 17 14 12 10 8 7 6 5 5 5 6 7 8 9 10 11 12 13 14 15 16 16 17 18 18 19 19 19 19 19 20 21 22 23 24 24 25 25
13 16 17 18 19 18 16 14 12 10 9 7 6 6 5 6 7 8 9 10 11 12 13 14 15 16 16 17 18 18 19 19 20 20 21 22 23 24 25 26 27 27 28
12 14 16 19 20 19 17 16 15 13 11 10 8 7 7 7 7 8 9 10 11 12 13 14 16 17 18 19 20 21 22 23 24 24 24 25 26 27 28 29 30 31 31
14 15 16 20 21 20 19 17 16 15 14 12 11 9 9 9 9 9 10 11 12 13 14 15 17 18 20 21 23 24 25 27 28 29 29 30 31 32 33 34 34 35 36
14 16 18 20 22 22 22 20 18 17 16 15 14 13 12 12 12 13 13 14 15 17 18 19 21 22 23 25 26 27 28 30 31 32 33 34 35 35 36 37 38 39 40
16 17 19 21 23 24 23 22 21 20 20 19 18 17 17 16 17 18 19 20 21 22 22 23 24 26 27 28 29 31 32 33 34 35 36 36 37 38 38 39 40 40 41
17 18 21 23 25 25 25 24 23 23 24 24 23 22 22 22 22 23 25 26 26 27 27 27 28 30 31 32 33 34 35 36 37 38 39 40 40 41 42 42 42 42 43
18 20 22 25 27 28 28 27 25 26 26 28 28 28 28 27 27 28 30 31 31 31 31 31 32 33 34 35 37 38 39 40 41 41 42 43 44 45 46 46 46 45 45
19 22 25 27 29 30 30 29 29 28 28 30 32 32 31 32 33 33 34 34 34 33 32 32 34 34 36 38 39 40 41 42 42 43 44 45 46 47 48 48 49 49 49
21 24 27 29 31 33 33 32 31 31 30 31 30 33 34 34 35 36 35 34 35 33 32 32 33 35 37 38 39 41 42 43 43 44 45 46 47 49 50 51 51 52 53
23 26 28 31 33 35 35 35 33 33 32 30 29 29 31 33 34 34 34 34 33 33 33 34 35 37 38 38 40 41 42 44 45 46 47 48 50 52 53 55 56 58 59
26 28 30 33 36 37 37 36 36 35 33 30 29 28 28 29 31 32 32 33 34 35 37 37 38 39 40 41 42 43 44 45 47 49 50 52 54 57 58 60 61 62 63
30 31 34 37 38 40 39 38 38 37 36 32 28 27 26 27 28 30 31 34 35 37 38 40 41 43 44 45 45 47 48 49 51 53 54 57 59 62 63 64 64 65 65
35 36 38 40 42 42 41 41 39 39 36 32 28 27 26 27 28 30 34 36 37 40 42 44 45 47 48 49 51 52 53 55 56 58 59 61 63 65 66 66 66 66 66
39 40 42 43 44 43 43 43 40 39 36 31 29 29 27 28 30 32 36 39 41 44 46 48 50 51 53 54 56 57 59 61 62 63 64 63 63 64 66 67 68 68 69
Wind_Direction
277 277 280 283 281 278 278 281 286 290 292 292 289 286 284 283 283 283 285 287 291 293 293 292 292 294 294 292 289 285 282 279 278 279 279 280 281 281 281 281 281 282 283
282 282 286 285 281 276 275 281 287 293 297 297 294 291 287 284 282 281 282 284 289 293 294 293 292 292 292 292 290 288 285 283 281 281 281 283 284 284 282 282 281 282 282
305 304 300 291 284 277 275 280 286 294 300 301 299 295 291 287 284 282 282 284 288 290 291 291 289 288 288 289 289 288 286 283 281 279 279 279 279 279 278 278 278 278 280
347 337 320 303 294 287 282 284 290 298 302 302 300 298 294 291 288 286 287 287 288 289 290 290 289 288 287 287 286 286 284 282 280 278 277 275 275 275 274 275 275 276 277
7 355 338 324 315 306 299 295 296 301 303 301 297 296 293 290 289 289 290 290 291 291 291 292 292 291 291 291 290 289 287 285 283 281 279 277 276 274 274 275 276 277 278
12 0 349 341 333 326 318 311 306 308 308 303 298 297 294 291 291 292 294 296 296 296 296 297 297 297 298 298 297 296 295 293 290 287 284 283 281 280 280 279 279 280 280
12 3 357 354 348 340 334 326 318 313 309 304 300 301 300 297 297 296 298 299 300 300 300 300 299 300 300 299 299 299 298 296 293 290 288 286 284 283 282 281 280 281 280
14 7 4 2 359 355 349 344 336 324 311 304 299 300 301 298 297 297 298 300 300 300 299 297 297 297 296 296 297 298 296 293 290 288 287 285 284 284 284 284 283 283 282
19 16 13 9 3 357 353 349 345 335 319 307 298 295 297 300 299 296 295 295 296 297 295 294 293 293 294 295 295 294 292 288 286 285 285 286 286 286 287 287 286 286 284
23 20 17 13 6 359 353 347 341 335 328 314 302 297 294 293 293 293 293 292 293 294 294 293 293 294 294 294 294 291 289 287 285 285 286 287 287 287 287 287 287 285 284
22 18 15 11 8 2 356 349 340 331 323 319 311 305 299 295 293 293 293 292 291 292 292 292 293 294 295 295 295 293 291 290 289 289 288 288 287 286 285 285 285 284 283
16 12 8 5 2 360 354 345 336 325 316 311 306 305 304 301 298 297 296 295 293 292 293 295 296 298 299 298 298 297 296 294 293 290 288 286 285 284 285 285 285 284 284
1 3 2 359 354 351 348 340 330 320 310 304 301 304 306 304 301 301 300 296 295 296 299 302 303 304 302 301 299 298 297 295 292 289 287 285 284 284 284 284 284 284 284
342 349 352 350 346 343 341 338 330 322 314 308 306 306 306 305 303 303 303 302 302 303 306 307 307 306 305 303 302 300 298 296 294 293 291 289 288 286 285 284 283 282 282
328 333 336 339 340 337 335 333 329 325 319 314 309 306 305 302 299 299 301 304 305 306 308 309 310 310 310 309 308 306 302 299 296 293 291 289 287 286 284 283 282 282 281
321 327 330 333 335 332 327 323 321 319 315 309 304 301 299 298 297 297 297 298 299 299 301 303 305 307 309 309 308 307 304 300 296 293 289 287 285 284 283 283 282 282 281
312 321 325 327 327 325 322 317 313 309 304 299 295 292 289 288 289 289 289 290 291 292 294 296 299 301 303 304 303 301 300 298 295 293 291 289 288 287 286 285 284 283 283
308 317 321 320 320 319 317 312 307 302 296 291 288 285 282 281 281 283 284 285 286 288 290 292 295 297 298 299 300 299 298 297 296 295 293 292 291 290 289 287 286 285 284
304 312 315 315 315 314 313 309 303 298 293 287 284 281 279 277 276 278 280 281 283 283 286 289 292 294 296 298 300 300 299 298 298 297 295 292 291 290 289 289 288 286 285
297 305 309 309 311 310 308 305 300 296 292 287 279 276 276 277 276 276 279 280 282 282 284 288 291 294 297 299 300 300 300 299 299 297 295 293 291 290 290 289 288 286 285
291 298 302 304 306 305 302 300 299 294 291 289 282 276 272 274 277 276 279 281 282 282 285 290 295 298 300 301 301 301 300 299 299 297 295 293 292 291 290 289 287 286 285
286 292 296 300 300 300 297 294 294 293 291 290 290 285 277 275 278 278 280 280 283 287 290 295 301 303 304 304 303 301 300 299 299 297 296 294 292 291 290 289 287 286 285
281 287 291 295 295 295 293 289 289 289 290 293 294 289 283 280 279 280 283 289 292 294 300 303 307 307 305 304 303 301 300 299 297 296 295 294 292 291 290 289 288 287 286
277 281 285 288 289 289 287 285 287 287 289 296 297 295 287 285 286 288 294 297 297 301 304 306 308 307 305 303 301 300 299 298 297 296 295 294 293 292 291 290 289 288 287
277 280 282 284 285 285 282 283 284 284 290 301 299 297 291 290 295 295 298 298 302 304 305 306 306 305 304 302 301 300 299 299 298 297 296 294 294 293 293 291 290 288 287
277 279 281 282 283 283 281 282 285 286 295 299 299 298 294 295 297 297 299 301 303 304 304 304 303 303 302 302 301 300 300 300 299 298 297 295 293 292 292 291 290 288 286